Location: La Fredeussais
(48.1780°N, 1.3980°W)
Time: 05:32:41
(UTC+00:00)

ITUPSAT 1 - Pass Details

Date: 01 November 2021
Orbit: 702 x 712 km, 98.6° (Epoch: 06 December)

Event Time Altitude Azimuth Distance (km) Brightness Sun altitude
Rises 05:54:51 0° 138° (SE) 3,080 ? -9.8°
Reaches altitude 10° 05:57:15 10° 130° (SE) 2,166 ? -9.4°
Maximum altitude 06:01:31 34° 66° (ENE) 1,144 ? -8.7°
Drops below altitude 10° 06:05:48 10° 1° (N) 2,180 ? -8.0°
Sets 06:08:13 0° 353° (N) 3,104 ? -7.7°
